This is the latest recevied weather packets stored in our database for station/object DG4MND-4. If no packets are shown the sender has not sent any weather packets the latest 10 day(s).
| Time | Temp. | Humidity | Pressure | Rain* | Wind** | Luminosity | Snow |
|---|---|---|---|---|---|---|---|
| 1777816261 | 23.89° C | 34% | 1012.9 hPa | 0 mm | - | - | - |
| 1777815657 | 23.89° C | 35% | 1013.1 hPa | 0 mm | - | - | - |
| 1777815049 | 23.89° C | 35% | 1013.2 hPa | 0 mm | - | - | - |
| 1777814445 | 23.89° C | 32% | 1013.2 hPa | 0 mm | - | - | - |
| 1777813845 | 23.89° C | 33% | 1013.3 hPa | 0 mm | - | - | - |
| 1777813242 | 23.33° C | 33% | 1013.3 hPa | 0 mm | - | - | - |
| 1777812635 | 23.89° C | 34% | 1013.4 hPa | 0 mm | - | - | - |
| 1777812034 | 24.44° C | 35% | 1013.6 hPa | 0 mm | - | - | - |
| 1777811431 | 23.89° C | 35% | 1013.6 hPa | 0 mm | - | - | - |
| 1777810825 | 24.44° C | 32% | 1013.7 hPa | 0 mm | - | - | - |
| 1777810224 | 25° C | 30% | 1013.6 hPa | 0 mm | - | - | - |
| 1777809618 | 25° C | 32% | 1013.8 hPa | 0 mm | - | - | - |
| 1777809075 | 25° C | 33% | 1013.7 hPa | 0 mm | - | - | - |
| 1777808471 | 25° C | 35% | 1013.8 hPa | 0 mm | - | - | - |
| 1777807871 | 25° C | 36% | 1013.9 hPa | 0 mm | - | - | - |
| 1777807264 | 25° C | 37% | 1014 hPa | 0 mm | - | - | - |
| 1777806661 | 25° C | 36% | 1014 hPa | 0 mm | - | - | - |
| 1777806057 | 24.44° C | 38% | 1014.2 hPa | 0 mm | - | - | - |
| 1777805454 | 23.89° C | 39% | 1014.4 hPa | 0 mm | - | - | - |
| 1777804851 | 25° C | 37% | 1014.5 hPa | 0 mm | - | - | - |
| 1777804250 | 23.89° C | 38% | 1014.6 hPa | 0 mm | - | - | - |
| 1777803644 | 22.78° C | 40% | 1014.8 hPa | 0 mm | - | - | - |
| 1777803043 | 22.78° C | 40% | 1014.8 hPa | 0 mm | - | - | - |
| 1777802437 | 22.78° C | 40% | 1014.9 hPa | 0 mm | - | - | - |
| 1777801834 | 22.78° C | 40% | 1015 hPa | 0 mm | - | - | - |
* Rain latest hour (hover to see other rain measurements)
** Current wind speed in m/s (hover to see current wind gust speed)